Weather History for KAVL - November, 2013

Change the Weather History Date:

Saturday, November 23, 2013

  Actual Average Record
Temperature  
Mean Temperature 46 °F 45 °F  
Max Temperature 59 °F 56 °F 75 °F (1973)
Min Temperature 32 °F 34 °F 13 °F (1937)
Degree Days  
Heating Degree Days 19 20  
Month to date heating degree days 413 383  
Since 1 July heating degree days 664 718  
Cooling Degree Days 0 0  
Month to date cooling degree days 0 0  
Year to date cooling degree days 860 862  
Moisture  
Dew Point 40 °F    
Average Humidity 74    
Maximum Humidity 93    
Minimum Humidity 54    
Precipitation  
Precipitation 0.00 in 0.14 in 2.63 in (1961)
Month to date precipitation 0.86 2.70  
Year to date precipitation 64.86 41.03  
Snow  
Snow 0.00 in 0.00 in 5.00 in (1975)
Month to date snowfall T 0.1  
Since 1 July snowfall T 0.1  
Since 1 September snowfall T 0.1  
Snow Depth 0.00 in    
Sea Level Pressure  
Sea Level Pressure 30.16 in    
Wind  
Wind Speed 16 mph (NNW)    
Max Wind Speed 32 mph    
Max Gust Speed 39 mph    
Visibility 10 miles    
Events      
T = Trace of Precipitation, MM = Missing Value Source: NWS Daily Summary

Daily Weather History Graph

Daily Weather History Graph

Search for Another Location

Airport or City:

Trip Planner

Search our weather history database for the weather conditions in past years. The results will help you decide how hot, cold, wet, or windy it might be!

Date:

Astronomy

Nov. 23, 2013 Rise Set
Actual Time 7:13 AM EST 5:19 PM EST
Civil Twilight 6:46 AM EST 5:46 PM EST
Nautical Twilight 6:14 AM EST 6:18 PM EST
Astronomical Twilight 5:44 AM EST 6:48 PM EST
Moon 10:42 PM EST (11/23) 11:33 AM EST (11/23)
Length of Visible Light 11h 00m
Length of Day
10h 05m
Waning Gibbous, 70% of the Moon is Illuminated
Nov 23
Waning Gibbous
Nov 25
Last Quarter
Dec 2
New
Dec 9
First Quarter
Dec 17
Full

Hourly Weather History & Observations

Time (EST) Temp. Windchill Dew Point Humidity Pressure Visibility Wind Dir Wind Speed Gust Speed Precip Events Conditions
12:54 AM 55.9 °F - 53.1 °F 90% 30.12 in 10.0 mi NNW 13.8 mph - N/A   Overcast
1:54 AM 55.9 °F - 51.1 °F 84% 30.11 in 10.0 mi NNW 16.1 mph 24.2 mph N/A   Overcast
2:54 AM 54.0 °F - 50.0 °F 86% 30.12 in 10.0 mi NNW 8.1 mph - N/A   Scattered Clouds
3:07 AM 53.6 °F - 50.0 °F 88% 30.17 in 10.0 mi NNW 8.1 mph - N/A   Mostly Cloudy
3:32 AM 53.6 °F - 48.2 °F 82% 30.16 in 10.0 mi North 8.1 mph - N/A   Scattered Clouds
3:54 AM 53.1 °F - 48.9 °F 86% 30.11 in 10.0 mi North 8.1 mph - N/A   Mostly Cloudy
4:44 AM 51.8 °F - 48.2 °F 88% 30.14 in 10.0 mi North 6.9 mph - N/A   Overcast
4:52 AM 51.8 °F - 48.2 °F 88% 30.14 in 10.0 mi North 9.2 mph - N/A   Overcast
4:54 AM 52.0 °F - 48.9 °F 89% 30.11 in 10.0 mi North 6.9 mph - N/A   Overcast
5:54 AM 51.1 °F - 48.0 °F 89% 30.12 in 10.0 mi NNW 15.0 mph 20.7 mph N/A   Overcast
6:22 AM 51.8 °F - 46.4 °F 82% 30.14 in 10.0 mi North 11.5 mph - N/A   Overcast
6:54 AM 51.1 °F - 46.9 °F 86% 30.13 in 10.0 mi NNW 10.4 mph 17.3 mph N/A   Overcast
7:39 AM 50.0 °F - 46.4 °F 87% 30.18 in 10.0 mi NNW 10.4 mph 18.4 mph N/A   Overcast
7:54 AM 50.0 °F - 46.0 °F 86% 30.16 in 10.0 mi North 11.5 mph 18.4 mph N/A   Overcast
8:13 AM 50.0 °F - 44.6 °F 82% 30.19 in 10.0 mi North 13.8 mph 18.4 mph N/A   Overcast
8:54 AM 50.0 °F - 43.0 °F 77% 30.17 in 10.0 mi North 17.3 mph 23.0 mph N/A   Overcast
9:50 AM 48.2 °F - 41.0 °F 76% 30.21 in 10.0 mi North 13.8 mph 25.3 mph N/A   Scattered Clouds
9:54 AM 48.9 °F - 41.0 °F 74% 30.18 in 10.0 mi North 16.1 mph 24.2 mph N/A   Partly Cloudy
10:54 AM 48.0 °F - 39.9 °F 74% 30.17 in 10.0 mi NNW 24.2 mph 31.1 mph N/A   Partly Cloudy
11:54 AM 48.9 °F - 39.9 °F 71% 30.17 in 10.0 mi NNW 15.0 mph - N/A   Partly Cloudy
12:16 PM 48.2 °F - 39.2 °F 71% 30.19 in 10.0 mi North 12.7 mph 27.6 mph N/A   Mostly Cloudy
12:54 PM 46.0 °F 39.6 °F 39.0 °F 76% 30.14 in 10.0 mi North 15.0 mph 23.0 mph N/A   Overcast
1:03 PM 46.4 °F 40.1 °F 39.2 °F 76% 30.16 in 10.0 mi North 15.0 mph 24.2 mph N/A   Scattered Clouds
1:54 PM 46.0 °F 37.8 °F 39.0 °F 76% 30.14 in 10.0 mi NNW 23.0 mph 28.8 mph N/A   Scattered Clouds
2:54 PM 46.0 °F 39.6 °F 36.0 °F 68% 30.14 in 10.0 mi North 15.0 mph 24.2 mph N/A   Partly Cloudy
3:54 PM 45.0 °F 38.5 °F 34.0 °F 65% 30.14 in 10.0 mi North 13.8 mph 25.3 mph N/A   Clear
4:54 PM 44.1 °F 36.2 °F 32.0 °F 63% 30.14 in 10.0 mi North 18.4 mph 26.5 mph N/A   Clear
5:54 PM 41.0 °F 30.5 °F 28.9 °F 62% 30.15 in 10.0 mi NNW 26.5 mph 35.7 mph N/A   Clear
6:54 PM 39.9 °F 28.8 °F 26.1 °F 58% 30.16 in 10.0 mi NNW 27.6 mph 36.8 mph N/A   Clear
7:54 PM 39.9 °F 29.7 °F 25.0 °F 55% 30.18 in 10.0 mi NNW 23.0 mph 34.5 mph N/A   Clear
8:54 PM 37.9 °F 27.6 °F 26.1 °F 62% 30.19 in 10.0 mi NNW 20.7 mph - N/A   Clear
9:54 PM 36.0 °F 26.7 °F 24.1 °F 62% 30.22 in 10.0 mi North 15.0 mph 24.2 mph N/A   Clear
10:54 PM 34.0 °F 22.7 °F 21.0 °F 59% 30.24 in 10.0 mi NNW 19.6 mph 26.5 mph N/A   Clear
11:54 PM 33.1 °F 20.6 °F 17.1 °F 52% 30.23 in 10.0 mi NNW 23.0 mph 29.9 mph N/A   Clear